Погода в Македонии

США     41°18′48″N   81°30′30″W
темп.,
°C
ветер,
м/с
пор.,
м/с
влажн.,
%
обл.,
%
осадки,
мм/ч
давл.,
гПа
погр.,
м
14 апреля, ср
ср1423:00+9юв117091 0.0 101814
02:00+8зсз3674100 0.0 1019165
05:00+8ссз3772100 0.0 1020282
08:00+7ссз1373100 0.0 1020193
11:00+12зсз234858 0.0 10181096
14:00+14зюз3542100 0.0 10162003
17:00+14з3646100 0.0 10132007
20:00+10сз3559100 0.0 1014330
15 апреля, чт
чт1523:00+8сз4661100 0.1 1014800
02:00+5сз366541 0.1 1013389
05:00+3зсз377098 0.0 1012552
08:00+3з47726 0.0 1013620
11:00+6з565699 0.1 10121550
14:00+6зсз6970100 0.4 10101382
17:00+5зсз4891100 1.0 1010952
20:00+4зсз51091100 1.8 1011906
16 апреля, пт
пт1623:00+3зсз5995100 0.4 1011756
02:00+4сз4997100 1.1 1010925
05:00+3сз4997100 1.9 1010660
08:00+3зсз4992100 2.2 1011728
11:00+5зсз5881100 0.3 1011969
14:00+6зсз5983100 0.5 1011940
17:00+5сз5887100 0.2 10111031
20:00+5сз4989100 0.3 1012804
17 апреля, сб
сб1723:00+5сз4891100 0.0 1013779
02:00+5зсз3792100 0.1 1013723
05:00+5ссз3893100 0.1 1012617
08:00+5с3589100 0.2 1013492
11:00+7ссз2263100 0.1 10131355
14:00+7ссз1264100 0.1 10131105
17:00+7с2265100 0.1 1012871
20:00+6с2475100 0.1 1013294
18 апреля, вс
вс1823:00+5с2377100 0.0 1014122
02:00+4зсз1284100 0.0 101436
05:00+3зсз128984 0.0 101444
08:00+5зсз248699 0.0 1015169
11:00+9сз236299 0.1 10151242
14:00+11сз3454100 0.3 10141495
17:00+11сз3452100 0.1 10131391
20:00+7ссз2367100 0.1 101491